Weather History for SKNV - November, 2013

Change the Weather History Date:

Tuesday, November 12, 2013

  Actual Average Record
Temperature  
Mean Temperature 83 °F -  
Max Temperature 93 °F 89 °F - ()
Min Temperature 73 °F 72 °F - ()
Cooling Degree Days 18    
Growing Degree Days 33 (Base 50)    
Moisture  
Dew Point 69 °F    
Average Humidity 57    
Maximum Humidity 83    
Minimum Humidity 30    
Precipitation  
Precipitation 0.00 in 0.24 in - ()
Sea Level Pressure  
Sea Level Pressure 29.74 in    
Wind  
Wind Speed 0 mph ()    
Max Wind Speed 5 mph    
Max Gust Speed -    
Visibility 6.9 miles    
Events      
T = Trace of Precipitation, MM = Missing Value Source: Averaged Metar Reports

Daily Weather History Graph

Daily Weather History Graph

Search for Another Location

Airport or City:

Trip Planner

Search our weather history database for the weather conditions in past years. The results will help you decide how hot, cold, wet, or windy it might be!

Date:

Astronomy

Nov. 12, 2013 Rise Set
Actual Time 5:45 AM COT 5:45 PM COT
Civil Twilight 5:23 AM COT 6:06 PM COT
Nautical Twilight 4:58 AM COT 6:32 PM COT
Astronomical Twilight 4:33 AM COT 6:57 PM COT
Moon 2:01 PM COT (11/12) 1:36 AM COT (11/12)
Length of Visible Light 12h 42m
Length of Day
11h 59m
Waxing Gibbous, 76% of the Moon is Illuminated
Nov 12
Waxing Gibbous
Nov 17
Full
Nov 25
Last Quarter
Dec 2
New
Dec 9
First Quarter

Hourly Weather History & Observations

Time (COT) Temp. Heat Index Dew Point Humidity Pressure Visibility Wind Dir Wind Speed Gust Speed Precip Events Conditions
6:00 AM 75.2 °F - 69.8 °F 83% 29.81 in 6.2 mi Calm Calm - N/A   Mostly Cloudy
7:00 AM 75 °F - 69 °F 77% 29.77 in 9 mi Calm Calm - -   Scattered Clouds
7:00 AM 75.2 °F - 69.8 °F 83% 29.84 in 6.2 mi Calm Calm - N/A   Partly Cloudy
8:00 AM 78.8 °F - 68.0 °F 69% 29.85 in 6.2 mi Calm Calm - N/A   Partly Cloudy
9:00 AM 82.4 °F 86.3 °F 69.8 °F 66% 29.85 in 6.2 mi Calm Calm - N/A   Partly Cloudy
10:00 AM 85 °F - 69 °F 50% 29.75 in 9 mi Calm Calm - -   Scattered Clouds
10:00 AM 86.0 °F 90.4 °F 69.8 °F 58% 29.84 in 6.2 mi Calm Calm - N/A   Partly Cloudy
11:00 AM 87.8 °F 91.4 °F 68.0 °F 52% 29.82 in 6.2 mi Calm Calm - N/A   Partly Cloudy
12:00 PM 89.6 °F 93.4 °F 68.0 °F 49% 29.79 in 6.2 mi Variable 2.3 mph - N/A   Partly Cloudy
1:00 PM 92 °F - 65 °F 32% 29.64 in 9 mi Calm Calm - -   Scattered Clouds
1:00 PM 93.2 °F 96.2 °F 66.2 °F 41% 29.75 in 6.2 mi Calm Calm - N/A   Scattered Clouds
2:00 PM 93.2 °F 94.9 °F 64.4 °F 38% 29.70 in 6.2 mi SE 4.6 mph - N/A   Mostly Cloudy
3:00 PM 93.2 °F 96.2 °F 66.2 °F 41% 29.67 in 6.2 mi Calm Calm - N/A   Mostly Cloudy
4:00 PM 93 °F - 65 °F 30% 29.54 in 9 mi Calm Calm - -   Scattered Clouds
4:00 PM 93.2 °F 96.2 °F 66.2 °F 41% 29.65 in 6.2 mi Calm Calm - N/A   Scattered Clouds
5:00 PM 91.4 °F 93.2 °F 64.4 °F 41% 29.67 in 6.2 mi SSE 4.6 mph - N/A   Partly Cloudy
6:00 PM 87.8 °F 92.6 °F 69.8 °F 55% 29.67 in 6.2 mi Calm Calm - N/A   Partly Cloudy
7:00 PM 85 °F - 72 °F 56% 29.61 in 9 mi Calm Calm - -   Scattered Clouds
7:00 PM 86.0 °F 91.8 °F 71.6 °F 62% 29.70 in 6.2 mi Calm Calm - N/A   Scattered Clouds
8:00 PM 82.4 °F 87.2 °F 71.6 °F 70% 29.73 in 6.2 mi Calm Calm - N/A   Partly Cloudy
9:00 PM 82.4 °F 87.2 °F 71.6 °F 70% 29.78 in 6.2 mi Calm Calm - N/A   Partly Cloudy
10:00 PM 81 °F - 73 °F 71% 29.71 in 9 mi Calm Calm - -   Scattered Clouds
10:00 PM 80.6 °F 85.4 °F 73.4 °F 79% 29.79 in 6.2 mi Calm Calm - N/A   Mostly Cloudy